Location: Newark
(21.1200°N, 73.4000°E)
Time: 15:24:07
(UTC+00:00)

Courier 1B Rocket - Pass Details

Date: 19 January 2020
Orbit: 920 x 1202 km, 28.2° (Epoch: 25 February)

Event Time Altitude Azimuth Distance (km) Brightness Sun altitude
Rises 05:51:04 0° 217° (SW) 3,934 8.4 43.4°
Reaches altitude 10° 05:54:22 10° 206° (SSW) 2,928 8.0 43.8°
Maximum altitude 06:00:12 27° 151° (SSE) 1,876 8.3 44.4°
Drops below altitude 10° 06:05:43 10° 96° (E) 2,759 7.8 44.9°
Sets 06:08:43 0° 84° (E) 3,666 8.2 45.2°
